Location: Marshall
(39.8477°N, 87.1868°W)
Time: 05:17:56
(UTC+00:00)

HTV-X1 - Pass Details

Date: 25 May 2026
Orbit: 368 x 378 km, 51.6° (Epoch: 26 May)

Event Time Altitude Azimuth Distance (km) Brightness Sun altitude
Rises 02:30:08 0° 308° (NW) 2,217 ? -14.0°
Reaches altitude 10° 02:32:11 10° 310° (NW) 1,366 ? -14.3°
Maximum altitude 02:35:14 76° 36° (NE) 384 ? -14.7°
Enters shadow 02:36:18 36° 116° (ESE) 602 ? -14.9°
